DMC 3-FM1

Satellite information

Favourite Embed

Satellite Type and Status

PAYLOADIN ORBIT

Key statistics

Satellite DMC 3-FM1 at a glance.

Uptime

3810

Days in orbit

Revolutions

≈ 14.9

Per day

Orbit

SSO

Sun Synchronous Orbit

Inclination

97.7

Latest

Satellite identification and parameters

Extended collection of information and parameters for DMC 3-FM1.

Object identification

Identified? True

Debris? False

Object name: DMC 3-FM1

International designator: 2015-032A

Object number (NORAD): 40715

Object ID (CCSDS): 40715

Country: UNITED KINGDOM (UK)

Current information (Y/N): Y

RCS size: LARGE

Orbital parameters

Period: 96.941 minutes

Inclination: 97.669 deg

SMA: 6990.35 km

Apoapsis: 615.516 km

Periapsis: 608.913 km

RAAN: 213.5068 deg

Eccentricy: 0.00047228

Argument of periapsis: 323.3742 deg

Mean anomaly: 36.715 deg

Mean motion: 14.85437618 rev/day

Mean motion (dot): 0.00000807 rev/day2

B* drag term: 0.000099606114 1/REarth

Two-line elements (TLE)

Creation date: Dec. 12, 2025, 10:14 a.m.

Reference frame: TEME

Reference center: EARTH

Epoch: Dec. 12, 2025, 7:09 a.m. UTC

TLE line 0: 0 DMC 3-FM1

TLE line 1: 1 40715U 15032A 25346.29824667 .00000807 00000-0 99606-4 0 9991

TLE line 2: 2 40715 97.6690 213.5068 0004723 323.3742 36.7150 14.85437618562160

Live tracking on map

Real-time ground track for satellite DMC 3-FM1.

In-orbit conjunctions

There are no conjunctions computed for DMC 3-FM1, at the moment. Check back to stay up to date, as we update our databases every day.

Go to all conjunctions

Associated space launch

The Polar Satellite Launch Vehicle (PSLV), in its thirtieth flight (PSLV-C28), will launch three identical DMC3 optical earth observation satellites. A, B and C. It will also carry two auxiliary satellites from UK. CBNT-1, a technology demonstrator earth observation micro satellite, and De-OrbitSail, a technology demonstrator nano satellite.

DMC 3-FM1 was lifted into orbit during the mission ‘PSLV XL | DMC-3A, DMC-3B, DMC-3C, CBNT-1 & DeOrbitSAIL’, on board a PSLV-XL space rocket.

The launch took place on July 10, 2015, 4:28 p.m. from Satish Dhawan Space Centre First Launch Pad.

For more information about the launch, click the button.

Launch to space PSLV XL | DMC-3A, DMC-3B, DMC-3C, CBNT-1 & DeOrbitSAIL
PSLV XL | DMC-3A, DMC-3B, DMC-3C, CBNT-1 & DeOrbitSAIL

Agency: N/A

Status: Launch Successful

Launch date: July 10, 2015, 4:28 p.m. UTC

Rocket: PSLV-XL

Launch pad: Satish Dhawan Space Centre First Launch Pad

Location: Satish Dhawan Space Centre, India

...

Latest news about this satellite

There are no fresh news available about this satellite. Check back as we update our databases every day.


Newsletter sign-up

Weekly statistics, charts and insights to help you stay on top of the space industry.